Temp
79 79 79 80 80 82 82 82 82 81 81 81 81 81 81 81 80 79 78 77 77 76 76 77 77 77 77 78 78 77 77 76 76 75 74 74 74 74 74 74 75 74 75 75 75 76 77 77 77 78 77 77 77 77 77 77 77 77 76 76 76 76 76
77 79 79 80 80 81 82 82 82 82 81 81 81 81 82 81 80 79 78 78 77 77 77 77 77 77 78 78 78 77 76 76 76 77 76 74 75 74 75 75 75 75 75 76 76 76 76 77 77 77 77 78 78 77 77 77 76 76 76 75 75 75 76
77 79 80 80 80 81 81 82 82 82 82 82 81 81 81 81 80 79 79 78 77 77 78 77 78 78 78 78 77 77 77 77 76 76 75 76 75 76 75 75 75 76 76 76 76 76 77 76 76 77 77 77 78 77 77 77 76 76 76 75 76 76 75
77 78 80 81 81 82 82 83 82 83 83 83 82 82 82 81 82 81 80 79 78 78 77 77 78 78 78 77 77 77 77 77 77 77 77 78 77 77 75 74 74 75 74 75 77 77 78 77 76 76 78 77 77 77 77 77 77 76 75 75 75 76 75
77 79 80 80 81 81 82 82 83 83 83 84 83 83 83 83 83 82 81 81 80 79 79 79 79 79 79 79 79 78 78 78 77 77 78 78 77 77 76 75 75 75 76 76 75 76 75 75 76 76 76 76 77 77 77 77 77 76 75 75 75 75 75
77 77 78 80 81 82 82 83 84 84 84 83 83 83 83 83 83 82 82 81 80 81 80 79 79 79 78 79 79 79 79 78 78 77 77 77 77 77 77 76 75 75 76 76 76 76 76 76 76 76 76 77 77 77 77 77 77 77 76 75 75 76 75
77 78 79 80 81 82 82 83 84 84 85 85 85 84 83 84 83 83 83 82 81 80 80 79 80 80 79 79 79 79 78 78 78 78 78 77 77 77 77 77 77 76 77 75 75 76 76 76 76 76 77 77 77 77 77 77 77 77 76 75 75 75 75
77 78 79 80 81 82 83 84 84 85 85 85 85 84 83 84 84 83 82 82 82 82 81 80 80 80 79 79 80 79 79 79 79 79 78 77 77 77 77 77 77 76 75 75 76 76 77 77 77 77 76 77 76 77 77 77 77 77 77 76 75 75 76
75 76 76 78 80 83 84 84 84 84 83 83 84 84 83 84 84 83 83 83 83 82 81 82 82 81 80 80 79 79 79 79 79 79 78 78 78 78 78 78 78 77 76 76 77 76 77 77 77 76 76 76 76 76 77 77 77 77 77 77 76 76 76
66 69 73 78 78 80 81 82 81 82 82 82 82 83 83 84 84 84 84 84 83 82 82 83 83 82 81 80 80 80 80 79 79 79 79 79 79 79 79 80 79 78 77 78 78 76 77 77 77 76 75 76 76 75 76 76 77 77 77 77 77 77 76
66 67 68 69 69 70 72 75 77 77 79 80 81 83 83 84 84 84 84 84 84 83 84 83 83 83 82 81 80 80 79 79 80 79 79 79 80 80 80 80 80 79 79 78 78 78 77 76 76 76 75 76 76 76 75 76 77 77 77 78 78 78 77
65 65 65 65 67 68 69 69 69 69 70 75 79 82 82 83 84 85 85 84 85 84 84 84 84 83 82 82 81 80 79 80 80 80 80 80 80 80 81 81 81 80 80 79 79 78 78 77 77 77 76 76 76 76 76 76 77 77 77 78 78 78 77
65 64 64 64 65 66 67 67 68 69 70 71 76 81 82 83 84 85 84 84 85 85 84 84 84 83 82 82 81 80 80 80 80 80 80 80 80 81 81 81 82 82 81 81 80 80 79 79 77 77 77 77 77 77 77 77 77 77 77 78 78 77 77
66 64 64 64 64 64 64 65 66 67 68 70 71 73 77 81 84 84 84 84 85 85 85 85 83 83 82 82 81 80 80 81 81 80 80 81 80 80 81 81 81 81 81 81 80 80 80 80 79 78 78 78 78 78 78 77 77 77 77 77 78 77 77
63 63 63 63 63 63 63 63 64 65 66 67 69 70 72 71 73 79 84 85 85 85 85 84 83 82 82 81 80 80 80 80 81 81 80 80 80 79 80 80 80 80 80 80 80 81 81 81 81 79 78 79 78 78 78 78 78 78 78 77 77 77 77
61 62 62 62 63 63 63 63 64 64 65 65 67 68 69 71 72 72 74 77 80 81 82 81 82 81 82 81 81 81 81 80 80 80 80 79 79 79 79 80 80 80 79 80 80 80 80 80 80 81 80 79 78 78 79 79 79 77 72 73 78 77 78
60 61 62 62 63 63 63 63 64 64 64 64 65 66 67 68 71 71 72 72 73 74 73 74 72 74 76 80 81 81 80 79 79 79 79 79 79 79 79 79 80 79 79 79 79 79 79 80 80 81 81 80 80 79 79 80 81 72 67 68 71 77 77
58 59 61 62 62 62 62 62 63 63 63 64 65 66 67 68 69 71 71 72 72 72 72 73 74 74 74 75 74 75 77 77 77 78 79 78 78 78 78 79 79 79 79 79 79 79 80 80 79 80 81 81 80 80 80 80 74 69 66 67 67 71 78
57 58 60 61 61 61 61 61 63 63 63 64 65 65 67 68 68 68 70 71 71 71 72 72 72 73 73 73 74 75 76 76 77 78 78 79 79 79 79 78 78 78 79 79 80 80 78 78 79 79 80 81 80 80 81 81 73 67 66 66 66 66 74
57 58 59 61 62 62 61 60 62 63 63 63 65 66 67 69 67 68 69 72 72 71 72 72 72 72 74 74 74 76 76 76 76 76 78 79 79 79 78 78 78 79 80 80 80 79 79 79 79 79 79 80 80 80 81 80 74 67 64 64 64 65 68
56 57 58 59 60 62 62 62 61 62 62 63 65 65 66 66 67 68 70 71 71 72 72 72 72 72 73 74 74 74 75 76 76 77 78 78 78 78 78 78 79 79 80 81 80 79 79 79 79 80 80 80 81 80 81 83 72 66 63 62 62 64 66
56 57 57 59 59 60 61 62 62 62 62 65 66 65 66 66 66 67 69 72 73 73 72 72 72 72 73 73 74 74 76 76 76 77 78 77 78 78 78 78 78 78 80 80 81 81 81 80 81 80 80 80 81 81 80 83 70 65 63 62 61 63 69
58 58 58 59 61 61 62 63 63 63 64 64 65 65 65 65 65 66 68 69 72 72 73 73 72 72 73 74 74 75 76 76 76 77 77 77 77 77 78 78 78 79 80 79 80 81 81 81 81 81 81 80 80 80 81 82 73 64 62 61 60 63 71
61 60 60 60 61 63 63 63 64 65 64 63 63 65 65 65 64 65 66 67 69 71 71 72 73 73 73 74 75 76 77 77 77 77 77 77 77 77 78 80 80 80 80 80 80 80 81 82 81 82 82 81 81 81 81 82 75 63 61 60 59 65 72
59 61 61 61 60 61 62 63 63 64 64 63 62 63 64 65 65 64 65 67 68 69 69 71 73 75 75 75 77 77 78 78 78 78 78 77 78 79 79 80 80 81 81 81 81 81 82 82 82 82 82 83 82 78 80 82 77 63 61 59 58 64 74
58 59 61 61 62 62 63 63 63 63 62 62 62 63 64 64 64 64 64 65 67 68 69 70 72 74 75 76 77 78 79 79 79 79 78 78 78 79 80 81 81 81 81 81 82 81 82 82 82 81 82 82 82 82 81 82 82 73 59 59 57 60 74
58 59 59 61 61 63 62 62 63 62 62 61 62 63 63 63 63 62 63 65 65 67 69 71 72 72 73 74 75 77 79 80 79 79 80 80 80 81 81 82 81 81 81 81 82 82 81 81 82 82 82 82 82 83 82 83 82 78 59 58 57 57 64
57 58 60 61 62 62 61 62 61 62 62 62 63 63 63 62 62 62 63 63 64 66 69 70 70 71 72 72 74 76 78 80 80 81 80 81 81 80 80 82 82 82 82 82 81 80 79 80 80 81 81 82 82 82 82 81 76 83 63 58 56 56 57
54 54 55 57 58 62 62 61 60 60 61 62 63 63 63 62 61 63 63 63 64 67 68 69 70 70 71 71 73 74 77 78 78 79 80 81 82 81 80 81 81 82 81 80 80 79 79 79 79 80 80 80 81 82 82 82 80 71 74 59 56 55 55
54 55 56 58 59 60 62 60 60 60 61 62 63 63 62 61 61 62 63 63 66 67 68 69 70 70 70 71 72 74 76 79 76 74 78 81 82 81 80 80 81 81 80 80 79 79 78 78 78 79 79 79 80 81 82 82 83 72 68 67 55 55 54
53 54 55 55 57 59 60 59 59 60 60 62 62 63 62 61 61 62 62 64 66 66 67 68 69 70 71 71 73 74 77 78 79 78 77 81 82 81 81 81 81 80 80 80 79 79 78 78 79 78 79 79 79 80 81 81 81 82 71 64 59 56 55
54 54 55 56 56 57 59 59 59 60 60 60 62 63 62 62 61 60 62 64 65 66 67 67 68 70 71 73 74 75 77 78 78 79 80 81 82 82 82 81 81 80 80 80 80 79 78 78 78 78 78 78 79 80 81 80 81 81 80 68 64 59 56
52 53 53 54 56 57 57 57 58 59 59 59 61 62 62 62 62 62 63 64 65 66 67 67 68 69 70 71 74 76 77 76 76 77 79 81 82 83 83 83 82 81 80 80 80 79 79 79 78 78 78 78 79 80 80 80 80 81 81 75 72 69 64
51 52 53 54 55 56 56 56 56 57 58 59 60 61 62 62 62 62 63 64 65 66 66 66 67 67 68 70 72 74 75 75 75 76 78 80 81 82 83 83 82 82 80 80 80 79 79 79 78 78 79 79 80 80 79 80 80 81 81 78 74 72 70
51 51 53 53 54 56 55 55 56 57 58 59 60 61 61 61 62 63 63 63 64 65 64 64 65 66 67 68 71 73 75 75 76 77 78 79 79 81 82 82 82 81 83 84 84 83 82 81 81 81 82 82 81 80 79 79 79 81 72 79 67 73 74
50 51 52 53 55 55 55 56 56 56 57 58 60 60 61 61 62 63 63 63 64 64 64 63 63 64 66 68 70 74 75 75 75 76 76 78 79 79 76 69 65 75 83 83 76 72 69 69 82 84 84 83 83 83 82 81 83 72 64 61 59 59 62
50 50 51 53 53 54 54 55 56 57 57 58 59 59 60 61 62 62 62 62 63 64 63 62 62 63 65 67 69 72 73 73 73 73 74 76 78 78 75 75 72 57 59 67 73 66 60 59 63 66 70 80 82 79 70 70 67 63 57 57 55 55 55
51 51 52 54 54 54 54 55 55 55 56 57 57 58 59 60 61 61 62 62 63 63 63 62 62 62 64 66 68 70 71 71 71 71 71 72 73 73 72 72 72 71 59 53 56 59 57 56 56 57 58 62 69 77 79 65 59 58 54 55 54 53 53
MSLP
1008.09 1008.37 1008.41 1008.45 1008.65 1008.65 1008.73 1008.97 1009.25 1009.77 1010.05 1010.45 1010.73 1011.01 1011.33 1011.57 1011.93 1012.33 1012.77 1013.13 1013.49 1013.81 1013.93 1014.13 1014.41 1014.69 1014.97 1015.13 1015.37 1015.65 1015.89 1016.17 1016.45 1016.77 1017.05 1017.21 1017.25 1017.45 1017.77 1017.89 1018.13 1018.25 1018.37 1018.57 1018.57 1018.61 1018.53 1018.61 1018.73 1018.81 1018.89 1019.01 1019.13 1019.21 1019.29 1019.37 1019.53 1019.65 1019.77 1019.89 1020.09 1020.25 1020.33
1008.17 1008.09 1008.13 1008.09 1008.25 1008.29 1008.29 1008.45 1008.85 1009.33 1009.77 1010.05 1010.41 1010.69 1010.97 1011.25 1011.57 1012.01 1012.33 1012.65 1012.97 1013.29 1013.65 1013.89 1014.17 1014.41 1014.57 1014.81 1015.01 1015.33 1015.77 1015.97 1016.17 1016.41 1016.73 1016.97 1017.05 1017.17 1017.25 1017.53 1017.77 1017.93 1018.05 1018.09 1018.17 1018.25 1018.37 1018.45 1018.57 1018.77 1018.89 1018.93 1019.05 1019.05 1019.17 1019.25 1019.41 1019.57 1019.73 1019.89 1020.13 1020.21 1020.29
1007.41 1007.41 1007.45 1007.65 1007.81 1007.85 1008.01 1008.29 1008.57 1008.81 1009.25 1009.69 1010.05 1010.41 1010.57 1010.73 1010.97 1011.45 1011.97 1012.45 1012.85 1013.09 1013.29 1013.53 1013.69 1013.97 1014.25 1014.53 1014.93 1015.17 1015.41 1015.73 1016.09 1016.33 1016.61 1016.77 1016.85 1016.89 1016.97 1017.21 1017.37 1017.57 1017.69 1017.81 1017.97 1018.09 1018.13 1018.37 1018.45 1018.61 1018.77 1018.93 1018.97 1019.05 1019.09 1019.21 1019.29 1019.45 1019.61 1019.77 1020.01 1020.17 1020.25
1006.93 1006.89 1006.69 1006.57 1006.85 1007.21 1007.57 1007.81 1008.21 1008.45 1008.69 1009.01 1009.41 1009.69 1010.05 1010.37 1010.57 1011.01 1011.41 1011.89 1012.53 1012.93 1013.29 1013.37 1013.57 1013.85 1014.09 1014.45 1014.73 1014.89 1015.21 1015.45 1015.65 1015.93 1016.13 1016.25 1016.53 1016.61 1016.93 1017.13 1017.25 1017.37 1017.73 1017.85 1017.69 1017.81 1017.93 1018.13 1018.41 1018.57 1018.69 1018.85 1018.93 1018.97 1019.05 1019.13 1019.25 1019.41 1019.53 1019.73 1019.93 1020.01 1020.09
1006.57 1006.45 1006.73 1006.97 1007.09 1007.25 1007.45 1007.57 1007.77 1007.97 1008.25 1008.45 1008.81 1009.13 1009.49 1009.93 1010.37 1010.85 1011.25 1011.49 1011.81 1012.29 1012.49 1012.89 1013.25 1013.57 1013.85 1014.13 1014.37 1014.53 1014.73 1015.05 1015.41 1015.65 1015.85 1015.97 1016.13 1016.41 1016.77 1016.97 1017.09 1017.29 1017.25 1017.37 1017.57 1017.81 1017.97 1018.17 1018.33 1018.53 1018.69 1018.77 1018.93 1018.97 1019.05 1019.05 1019.21 1019.33 1019.53 1019.69 1019.93 1019.97 1020.09
1006.45 1006.73 1006.69 1006.57 1006.69 1006.73 1006.77 1006.89 1007.09 1007.41 1007.81 1008.25 1008.61 1009.05 1009.33 1009.77 1010.17 1010.65 1010.89 1011.29 1011.69 1011.89 1012.21 1012.65 1012.97 1013.17 1013.57 1013.69 1014.01 1014.29 1014.49 1014.73 1014.97 1015.33 1015.65 1015.85 1016.13 1016.37 1016.49 1016.61 1016.81 1016.97 1017.17 1017.25 1017.33 1017.53 1017.65 1017.93 1018.13 1018.33 1018.61 1018.69 1018.85 1018.97 1018.97 1019.05 1019.09 1019.17 1019.41 1019.65 1019.81 1019.93 1020.05
1005.69 1005.89 1005.97 1006.01 1006.13 1006.25 1006.37 1006.53 1006.73 1007.01 1007.25 1007.61 1008.01 1008.49 1009.05 1009.45 1009.85 1010.09 1010.49 1011.01 1011.25 1011.81 1012.21 1012.53 1012.61 1012.89 1013.17 1013.41 1013.77 1014.05 1014.41 1014.61 1014.81 1015.17 1015.41 1015.77 1015.97 1016.21 1016.21 1016.29 1016.45 1016.65 1016.65 1016.89 1017.21 1017.29 1017.61 1017.77 1017.85 1018.05 1018.25 1018.49 1018.69 1018.81 1018.89 1018.97 1019.01 1019.01 1019.25 1019.53 1019.77 1019.85 1019.89
1005.81 1005.85 1005.53 1005.57 1005.61 1005.69 1005.93 1006.17 1006.37 1006.61 1006.93 1007.29 1007.85 1008.37 1008.85 1009.05 1009.49 1009.97 1010.37 1010.53 1010.93 1011.37 1011.73 1012.05 1012.41 1012.61 1012.85 1013.13 1013.37 1013.73 1014.01 1014.25 1014.45 1014.73 1015.09 1015.49 1015.77 1015.97 1016.01 1016.13 1016.21 1016.29 1016.57 1016.85 1016.85 1017.01 1017.29 1017.45 1017.57 1017.77 1017.97 1018.25 1018.45 1018.57 1018.65 1018.73 1018.81 1018.89 1019.09 1019.41 1019.65 1019.81 1019.81
1006.53 1005.93 1006.41 1006.53 1006.45 1006.21 1006.09 1006.05 1006.13 1006.37 1006.73 1007.13 1007.53 1007.89 1008.33 1008.77 1009.13 1009.45 1009.77 1010.17 1010.53 1010.97 1011.29 1011.45 1011.77 1012.05 1012.45 1012.85 1013.21 1013.45 1013.61 1013.89 1014.21 1014.45 1014.81 1015.21 1015.45 1015.73 1015.81 1015.93 1015.97 1016.05 1016.37 1016.49 1016.61 1016.73 1016.89 1017.13 1017.29 1017.53 1017.77 1018.01 1018.13 1018.33 1018.53 1018.57 1018.65 1018.73 1018.93 1019.17 1019.37 1019.61 1019.77
1009.41 1008.65 1007.41 1006.53 1006.33 1006.49 1006.73 1006.93 1007.09 1007.17 1007.37 1007.45 1007.57 1007.85 1008.17 1008.37 1008.65 1008.97 1009.37 1009.73 1010.13 1010.61 1010.81 1011.17 1011.41 1011.73 1012.13 1012.49 1012.77 1012.97 1013.37 1013.73 1013.85 1014.17 1014.45 1014.77 1014.85 1015.17 1015.33 1015.53 1015.73 1015.89 1016.09 1016.17 1016.33 1016.61 1016.61 1016.73 1016.97 1017.25 1017.57 1017.81 1017.97 1018.17 1018.33 1018.45 1018.53 1018.65 1018.73 1018.89 1019.09 1019.29 1019.49
1010.61 1009.89 1009.37 1009.29 1009.01 1008.49 1007.85 1007.65 1007.73 1007.89 1007.93 1007.93 1007.77 1007.77 1007.93 1008.21 1008.49 1008.77 1009.09 1009.37 1009.77 1010.05 1010.29 1010.69 1010.93 1011.37 1011.77 1012.13 1012.57 1012.85 1013.13 1013.33 1013.53 1013.85 1014.05 1014.17 1014.25 1014.45 1014.69 1015.01 1015.29 1015.53 1015.81 1016.01 1016.25 1016.25 1016.45 1016.61 1016.65 1016.97 1017.29 1017.57 1017.73 1017.93 1018.13 1018.21 1018.33 1018.53 1018.61 1018.69 1018.73 1018.97 1019.17
1011.49 1011.09 1011.05 1010.73 1010.21 1009.77 1009.97 1009.77 1009.49 1009.05 1008.53 1008.09 1008.09 1008.13 1008.13 1008.25 1008.41 1008.57 1008.77 1009.01 1009.13 1009.69 1010.05 1010.33 1010.57 1010.97 1011.45 1011.81 1012.25 1012.53 1012.77 1012.93 1013.13 1013.33 1013.45 1013.65 1013.85 1013.93 1014.09 1014.33 1014.69 1015.05 1015.29 1015.53 1015.93 1016.05 1016.13 1016.33 1016.49 1016.65 1016.93 1017.05 1017.21 1017.37 1017.61 1017.81 1018.01 1018.21 1018.33 1018.45 1018.57 1018.77 1018.93
1012.33 1012.29 1012.01 1011.77 1011.57 1011.21 1010.57 1010.41 1010.49 1010.13 1009.81 1009.45 1008.57 1007.97 1008.01 1008.25 1008.41 1008.53 1008.77 1009.01 1009.09 1009.33 1009.69 1009.97 1010.33 1010.69 1011.17 1011.49 1011.81 1012.17 1012.37 1012.53 1012.65 1012.73 1012.97 1013.21 1013.41 1013.57 1013.81 1013.97 1014.09 1014.41 1014.77 1014.93 1015.33 1015.69 1015.93 1016.01 1016.21 1016.25 1016.45 1016.65 1016.81 1017.01 1017.17 1017.45 1017.65 1017.93 1018.05 1018.21 1018.37 1018.57 1018.81
1012.73 1012.57 1012.37 1012.09 1011.89 1011.81 1011.89 1011.73 1011.33 1011.05 1010.81 1010.25 1009.97 1009.29 1008.57 1008.17 1008.05 1008.29 1008.57 1008.85 1008.93 1009.13 1009.53 1009.85 1010.25 1010.61 1010.97 1011.25 1011.65 1011.85 1011.97 1012.05 1012.17 1012.45 1012.61 1012.81 1013.09 1013.37 1013.53 1013.69 1013.85 1013.93 1014.09 1014.41 1014.85 1015.17 1015.41 1015.69 1015.89 1015.93 1016.09 1016.25 1016.45 1016.53 1016.73 1017.05 1017.37 1017.61 1017.81 1017.97 1018.17 1018.41 1018.61
1013.49 1013.41 1013.05 1012.81 1012.81 1012.65 1012.49 1012.33 1012.21 1011.93 1011.57 1011.25 1010.73 1010.41 1010.01 1009.49 1009.09 1008.49 1008.13 1008.21 1008.49 1008.81 1009.21 1009.53 1010.17 1010.69 1011.01 1011.33 1011.65 1011.69 1011.73 1011.93 1012.09 1012.25 1012.49 1012.73 1013.01 1013.21 1013.41 1013.53 1013.69 1013.81 1013.97 1014.13 1014.33 1014.53 1014.77 1015.05 1015.33 1015.69 1015.93 1015.97 1016.13 1016.33 1016.49 1016.77 1017.01 1017.13 1017.41 1017.73 1017.93 1018.05 1018.33
1014.13 1014.05 1013.81 1013.61 1013.41 1013.25 1013.09 1012.85 1012.65 1012.45 1012.13 1011.77 1011.45 1011.17 1010.81 1010.45 1009.93 1009.45 1009.17 1008.81 1008.45 1008.61 1008.97 1009.37 1010.17 1010.77 1011.13 1011.41 1011.49 1011.49 1011.61 1011.73 1011.85 1012.01 1012.25 1012.57 1012.81 1012.89 1013.05 1013.25 1013.49 1013.73 1013.93 1014.09 1014.17 1014.29 1014.45 1014.73 1014.93 1015.25 1015.53 1015.77 1015.89 1016.05 1016.25 1016.45 1016.45 1016.57 1016.81 1017.01 1017.37 1017.69 1017.89
1014.85 1014.65 1014.45 1014.05 1013.69 1013.57 1013.45 1013.17 1012.89 1012.69 1012.53 1012.33 1011.97 1011.69 1011.45 1011.17 1010.53 1010.09 1009.57 1009.13 1009.49 1009.65 1009.17 1009.09 1010.05 1010.93 1011.65 1011.57 1011.21 1011.21 1011.33 1011.69 1011.93 1012.09 1012.41 1012.45 1012.61 1012.77 1012.97 1013.09 1013.17 1013.41 1013.65 1013.85 1014.01 1014.21 1014.33 1014.49 1014.77 1014.93 1015.05 1015.29 1015.53 1015.77 1015.89 1015.93 1015.93 1016.13 1016.45 1016.69 1016.85 1017.13 1017.49
1015.61 1015.21 1014.93 1014.57 1014.17 1013.85 1013.65 1013.53 1013.37 1013.21 1013.13 1012.81 1012.37 1012.01 1011.77 1011.45 1011.05 1010.53 1010.21 1009.85 1009.41 1009.53 1010.13 1010.13 1009.61 1009.69 1010.09 1010.65 1011.69 1012.25 1011.93 1011.77 1011.85 1012.09 1012.21 1012.41 1012.65 1012.81 1012.93 1013.09 1013.25 1013.37 1013.41 1013.57 1013.81 1013.93 1014.05 1014.33 1014.41 1014.53 1014.69 1014.85 1015.05 1015.29 1015.37 1015.41 1015.41 1015.73 1016.09 1016.37 1016.61 1016.77 1017.01
1015.97 1015.77 1015.49 1015.13 1014.53 1014.17 1014.05 1014.05 1013.93 1013.73 1013.53 1013.09 1012.65 1012.45 1012.09 1011.73 1011.53 1011.17 1010.53 1010.13 1009.89 1009.73 1009.81 1010.77 1011.29 1011.01 1010.25 1010.01 1010.17 1010.73 1011.21 1011.45 1011.65 1011.77 1011.89 1011.97 1012.01 1012.13 1012.41 1012.77 1013.05 1013.21 1013.33 1013.41 1013.29 1013.53 1013.93 1013.97 1014.13 1014.29 1014.33 1014.53 1014.77 1014.89 1014.81 1014.89 1014.89 1015.33 1015.65 1015.93 1016.21 1016.45 1016.61
1016.13 1016.01 1015.81 1015.49 1015.05 1014.65 1014.41 1014.05 1014.05 1013.97 1013.77 1013.45 1012.89 1012.69 1012.49 1012.09 1011.85 1011.33 1010.65 1010.13 1009.97 1009.97 1009.85 1009.65 1009.93 1010.49 1010.61 1010.09 1009.69 1009.41 1009.57 1010.13 1010.89 1011.81 1011.73 1011.45 1011.53 1011.69 1011.97 1012.29 1012.49 1012.49 1012.57 1012.81 1013.09 1013.37 1013.45 1013.57 1013.77 1013.85 1014.05 1014.17 1014.33 1014.41 1014.41 1014.45 1014.41 1014.77 1015.13 1015.45 1015.73 1016.01 1016.37
1016.29 1016.17 1015.93 1015.53 1015.29 1015.01 1014.73 1014.49 1014.17 1014.01 1013.77 1013.61 1013.33 1012.85 1012.49 1012.17 1011.81 1011.33 1010.77 1010.25 1010.09 1010.01 1010.13 1010.25 1010.05 1009.61 1009.57 1009.93 1009.65 1009.45 1009.37 1009.33 1009.53 1010.13 1010.49 1010.85 1011.13 1011.41 1011.57 1011.57 1011.73 1012.05 1012.25 1012.37 1012.53 1012.77 1013.01 1013.17 1013.37 1013.41 1013.53 1013.69 1013.81 1014.05 1014.09 1013.89 1013.89 1014.29 1014.61 1014.97 1015.29 1015.61 1016.01
1016.41 1016.37 1016.33 1015.81 1015.57 1015.17 1014.89 1014.73 1014.57 1014.21 1013.81 1013.41 1013.21 1012.81 1012.37 1012.37 1012.05 1011.65 1011.17 1010.49 1010.09 1009.89 1009.93 1010.05 1010.17 1009.97 1009.69 1009.77 1009.97 1009.93 1009.41 1009.21 1009.05 1009.01 1009.53 1010.25 1010.81 1011.21 1011.37 1011.41 1011.41 1011.57 1011.65 1011.93 1011.97 1011.89 1012.05 1012.37 1012.57 1012.89 1013.05 1013.13 1013.37 1013.65 1013.73 1013.41 1013.45 1013.77 1014.09 1014.41 1014.81 1015.25 1015.81
1016.53 1016.33 1016.13 1015.89 1015.49 1015.13 1014.81 1014.69 1014.61 1014.33 1013.77 1013.33 1013.13 1012.93 1012.65 1012.41 1012.13 1011.89 1011.53 1011.01 1010.29 1009.97 1009.69 1009.69 1009.85 1009.85 1009.81 1009.73 1009.53 1009.49 1009.65 1009.77 1009.73 1009.45 1009.45 1009.89 1010.49 1010.81 1010.97 1011.13 1011.29 1011.29 1011.25 1011.65 1011.73 1011.85 1011.77 1011.73 1011.89 1012.01 1012.33 1012.65 1012.85 1013.13 1013.13 1013.05 1012.97 1013.21 1013.49 1013.89 1014.33 1015.13 1015.45
1016.21 1016.09 1015.93 1015.65 1015.45 1014.89 1014.53 1014.53 1014.45 1014.21 1013.93 1013.49 1013.17 1012.97 1012.69 1012.45 1012.21 1012.09 1012.01 1011.29 1010.57 1010.25 1010.09 1009.85 1009.61 1009.45 1009.49 1009.49 1009.33 1009.21 1009.17 1009.25 1009.49 1009.65 1009.65 1009.85 1010.09 1010.17 1010.25 1010.33 1010.49 1010.77 1010.81 1011.21 1011.33 1011.49 1011.37 1011.21 1011.33 1011.41 1011.57 1011.89 1012.17 1012.25 1012.61 1012.53 1012.41 1012.73 1013.01 1013.33 1013.89 1014.29 1014.73
1016.29 1015.97 1015.77 1015.49 1015.29 1015.09 1014.49 1014.33 1014.29 1014.05 1013.81 1013.65 1013.33 1012.89 1012.77 1012.57 1012.29 1012.01 1011.73 1011.29 1010.85 1010.53 1010.29 1009.97 1009.57 1009.21 1009.21 1009.09 1008.85 1008.73 1008.69 1008.77 1008.89 1009.13 1009.37 1009.61 1009.65 1009.69 1009.89 1009.93 1009.97 1009.97 1010.17 1010.41 1010.61 1010.73 1010.73 1010.93 1011.09 1011.09 1011.09 1011.09 1011.33 1011.53 1011.93 1011.97 1011.97 1012.21 1012.49 1012.81 1013.29 1013.81 1013.97
1016.53 1016.05 1015.69 1015.37 1015.05 1014.89 1014.65 1014.21 1013.93 1013.73 1013.69 1013.61 1013.33 1012.89 1012.57 1012.41 1012.29 1012.13 1012.01 1011.69 1011.21 1010.81 1010.37 1009.93 1009.53 1009.17 1009.01 1008.81 1008.49 1008.25 1008.17 1008.17 1008.37 1008.49 1008.77 1008.97 1009.05 1009.17 1009.17 1009.13 1009.37 1009.57 1009.77 1009.85 1009.97 1010.21 1010.29 1010.37 1010.57 1010.77 1010.77 1010.65 1010.89 1011.09 1011.25 1011.49 1011.53 1011.69 1011.93 1012.21 1012.65 1013.01 1013.25
1016.57 1016.33 1015.89 1015.49 1015.21 1014.85 1014.69 1014.37 1014.09 1014.01 1013.85 1013.57 1013.29 1012.89 1012.53 1012.25 1012.13 1011.97 1011.65 1011.37 1011.17 1010.89 1010.37 1009.77 1009.37 1009.09 1008.89 1008.61 1008.33 1008.05 1007.73 1007.57 1007.65 1007.89 1007.97 1008.09 1008.37 1008.45 1008.53 1008.61 1008.77 1008.89 1009.13 1009.37 1009.49 1009.73 1009.93 1010.01 1010.01 1010.21 1010.29 1010.29 1010.37 1010.53 1010.65 1010.77 1011.05 1011.13 1011.37 1011.65 1011.97 1012.41 1012.81
1016.65 1016.21 1015.93 1015.57 1015.13 1014.77 1014.45 1014.37 1014.21 1013.93 1013.61 1013.33 1013.09 1012.73 1012.41 1012.17 1012.05 1011.81 1011.49 1011.29 1011.17 1010.69 1010.17 1009.77 1009.41 1009.09 1008.77 1008.49 1008.21 1007.85 1007.45 1007.17 1006.97 1006.97 1007.13 1007.21 1007.53 1007.97 1008.13 1007.97 1007.97 1008.17 1008.41 1008.69 1009.05 1009.37 1009.53 1009.53 1009.65 1009.81 1009.89 1009.89 1009.93 1010.05 1010.13 1010.13 1010.37 1010.53 1010.81 1011.05 1011.41 1011.85 1012.21
1016.89 1016.61 1016.13 1015.69 1015.09 1014.57 1014.29 1014.01 1014.05 1013.89 1013.57 1013.09 1012.77 1012.49 1012.21 1012.05 1012.01 1011.73 1011.41 1011.29 1010.97 1010.41 1010.05 1009.73 1009.33 1009.05 1008.73 1008.45 1008.13 1007.77 1007.33 1006.93 1006.97 1006.77 1006.49 1006.65 1006.77 1007.13 1007.45 1007.45 1007.61 1007.69 1007.85 1008.29 1008.65 1008.97 1009.21 1009.29 1009.37 1009.53 1009.69 1009.73 1009.65 1009.61 1009.69 1009.69 1009.81 1009.93 1010.17 1010.53 1010.89 1011.33 1011.73
1016.73 1016.53 1016.25 1015.81 1015.41 1014.81 1014.37 1014.09 1013.57 1013.53 1013.37 1012.89 1012.45 1012.17 1011.97 1011.97 1011.89 1011.53 1011.29 1011.01 1010.45 1010.29 1010.05 1009.65 1009.21 1008.81 1008.53 1008.25 1007.93 1007.61 1007.21 1006.69 1006.77 1007.29 1006.73 1006.21 1006.21 1006.45 1006.77 1006.97 1007.05 1007.21 1007.41 1007.69 1008.13 1008.57 1008.89 1008.93 1009.01 1009.21 1009.45 1009.61 1009.53 1009.33 1009.25 1009.17 1009.21 1009.37 1009.53 1009.93 1010.41 1010.73 1011.05
1016.73 1016.49 1016.21 1015.97 1015.57 1015.05 1014.61 1014.33 1013.73 1013.01 1012.97 1012.77 1012.21 1011.85 1011.73 1011.73 1011.81 1011.41 1011.17 1010.69 1010.25 1010.01 1009.93 1009.49 1008.97 1008.57 1008.25 1007.97 1007.69 1007.37 1006.89 1006.49 1006.21 1006.25 1006.41 1005.93 1005.77 1006.13 1006.25 1006.41 1006.53 1007.01 1006.97 1007.29 1007.73 1008.01 1008.37 1008.45 1008.53 1008.81 1008.89 1009.05 1009.17 1009.01 1008.93 1008.81 1008.85 1008.85 1009.01 1009.29 1009.77 1010.17 1010.49
1016.57 1016.33 1016.01 1015.69 1015.45 1015.17 1014.81 1014.33 1013.89 1013.33 1012.65 1012.41 1012.09 1011.65 1011.49 1011.53 1011.57 1011.45 1011.01 1010.53 1010.25 1010.01 1009.65 1009.13 1008.65 1008.25 1007.93 1007.65 1007.37 1007.05 1006.65 1006.41 1006.17 1006.01 1005.73 1005.53 1005.33 1005.37 1005.41 1005.69 1005.97 1006.29 1006.53 1006.85 1007.13 1007.37 1007.69 1007.89 1008.09 1008.21 1008.37 1008.53 1008.49 1008.57 1008.45 1008.41 1008.49 1008.45 1008.45 1008.85 1009.21 1009.69 1009.97
1016.53 1016.21 1016.05 1015.73 1015.29 1015.05 1014.81 1014.49 1013.97 1013.37 1012.89 1012.21 1011.81 1011.73 1011.45 1011.33 1011.21 1011.09 1010.77 1010.45 1010.05 1009.73 1009.37 1008.93 1008.45 1008.09 1007.77 1007.53 1007.13 1006.77 1006.53 1006.61 1006.37 1005.97 1005.57 1005.25 1004.97 1004.77 1004.77 1004.85 1005.17 1005.57 1005.97 1006.25 1006.57 1006.85 1007.05 1007.29 1007.57 1007.77 1007.89 1008.01 1007.93 1007.97 1008.05 1008.09 1008.09 1008.01 1008.01 1008.29 1008.81 1009.29 1009.73
1016.37 1015.93 1015.57 1015.49 1015.13 1014.89 1014.69 1014.45 1014.09 1013.49 1013.01 1012.49 1011.73 1011.49 1011.45 1011.17 1010.85 1010.73 1010.57 1010.25 1009.97 1009.65 1009.33 1008.89 1008.41 1008.05 1007.73 1007.37 1006.93 1006.65 1006.41 1006.29 1005.93 1005.69 1005.41 1005.01 1004.73 1004.57 1004.37 1004.29 1004.37 1004.85 1005.25 1005.53 1005.77 1006.25 1006.57 1006.77 1007.01 1007.13 1007.09 1007.25 1007.29 1007.49 1007.65 1007.73 1007.61 1007.53 1007.49 1007.73 1008.29 1008.73 1009.09
1016.33 1016.01 1015.45 1015.09 1014.97 1014.65 1014.45 1014.21 1013.97 1013.57 1013.13 1012.57 1011.89 1011.41 1011.09 1010.89 1010.61 1010.49 1010.45 1010.21 1009.89 1009.61 1009.33 1008.85 1008.37 1007.93 1007.57 1007.21 1006.77 1006.25 1005.85 1005.65 1005.37 1005.21 1004.89 1004.49 1004.05 1003.73 1003.49 1003.61 1003.81 1003.93 1003.97 1003.73 1003.89 1004.37 1004.97 1005.53 1005.57 1005.49 1005.45 1005.81 1006.29 1006.81 1007.13 1007.09 1006.97 1006.33 1006.09 1006.61 1007.05 1007.53 1008.13
1016.21 1015.85 1015.37 1014.89 1014.61 1014.41 1014.17 1013.89 1013.65 1013.49 1013.17 1012.69 1012.09 1011.65 1011.25 1010.93 1010.65 1010.37 1010.29 1010.09 1009.81 1009.53 1009.25 1008.73 1008.37 1008.01 1007.57 1007.09 1006.65 1006.09 1005.73 1005.53 1005.29 1004.97 1004.65 1004.17 1003.73 1003.45 1003.17 1002.81 1002.77 1002.65 1003.01 1003.29 1003.09 1003.17 1003.25 1003.53 1004.05 1003.97 1004.37 1004.97 1004.77 1004.81 1005.49 1005.65 1005.05 1004.85 1005.49 1005.85 1006.21 1006.57 1006.85
1015.97 1015.65 1015.29 1014.73 1014.37 1014.01 1013.85 1013.53 1013.25 1013.05 1012.85 1012.57 1012.25 1011.89 1011.41 1010.93 1010.57 1010.29 1009.97 1009.85 1009.69 1009.41 1009.01 1008.57 1008.21 1007.85 1007.45 1007.01 1006.57 1006.01 1005.73 1005.53 1005.29 1004.81 1004.45 1003.89 1003.45 1003.13 1003.21 1003.05 1002.73 1002.93 1002.85 1002.57 1002.57 1002.69 1002.85 1002.97 1002.93 1003.09 1003.29 1003.61 1004.13 1003.97 1003.93 1004.01 1004.29 1004.85 1005.29 1005.61 1006.01 1006.41 1006.77
1015.41 1015.17 1014.81 1014.37 1014.05 1013.65 1013.33 1013.05 1012.85 1012.65 1012.33 1012.13 1012.01 1011.77 1011.33 1010.81 1010.25 1010.13 1009.93 1009.61 1009.33 1008.97 1008.61 1008.21 1007.97 1007.73 1007.29 1006.85 1006.37 1005.85 1005.49 1005.25 1005.01 1004.77 1004.49 1003.89 1003.25 1002.97 1003.01 1003.17 1003.45 1003.17 1002.85 1003.09 1003.05 1002.85 1002.81 1002.77 1002.77 1002.89 1003.05 1003.13 1003.25 1003.61 1003.89 1003.93 1004.21 1004.53 1004.93 1005.25 1005.69 1006.17 1006.49
Wind_Speed
15 14 15 15 16 17 17 18 18 17 18 18 17 18 17 16 16 15 15 16 17 17 16 15 15 14 15 13 13 11 10 10 8 8 8 8 7 8 8 7 8 7 7 7 8 8 7 5 6 6 6 6 7 6 6 5 5 5 4 4 4 4 5
15 16 16 16 16 17 18 17 16 16 16 17 17 18 17 17 16 16 16 17 18 18 17 16 16 15 15 14 12 11 11 11 10 8 7 6 6 6 8 8 8 8 8 7 7 6 5 6 5 6 6 6 7 6 6 5 5 4 4 4 4 4 4
17 17 17 17 17 17 17 15 16 16 16 16 16 17 18 18 18 18 17 16 17 17 16 17 17 16 15 14 12 13 12 11 9 9 9 10 9 10 8 8 8 8 8 6 6 6 5 6 5 5 6 6 6 6 5 5 4 4 4 3 4 5 5
17 18 20 20 19 17 16 16 17 16 16 18 18 19 19 19 17 17 17 17 18 16 17 16 16 15 14 14 14 13 13 12 12 11 11 10 10 8 7 7 7 6 5 7 8 7 6 6 6 5 6 6 6 5 5 6 4 4 4 3 4 5 5
16 17 15 15 17 16 16 16 17 17 18 18 18 19 19 17 16 15 15 16 18 19 18 17 14 13 12 12 11 12 14 14 12 11 10 9 8 7 8 9 8 8 9 7 5 6 5 6 7 6 6 6 5 5 6 5 5 4 4 4 5 4 5
15 15 15 16 16 16 17 18 18 19 18 18 18 18 17 17 16 17 17 17 16 16 15 15 16 15 15 14 13 12 11 12 11 10 10 9 8 8 9 9 9 9 8 9 7 7 7 7 7 7 7 6 6 6 6 6 5 5 4 4 5 5 5
15 16 16 16 16 17 18 18 17 17 17 17 16 15 15 16 18 17 16 16 17 18 16 16 16 15 14 13 13 13 13 13 12 12 10 9 8 8 9 8 8 9 9 6 7 7 7 7 8 8 8 8 7 8 7 7 7 5 4 5 5 4 4
7 11 15 15 15 16 16 17 17 16 15 14 15 15 17 16 15 16 16 16 16 16 16 17 16 15 14 13 13 14 13 13 12 11 10 10 9 9 9 8 8 8 6 7 8 8 9 9 8 7 8 8 8 8 8 8 8 6 5 6 5 5 4
7 2 0 2 4 9 12 14 15 16 17 17 17 16 17 16 16 17 17 17 16 16 17 16 16 15 13 13 13 14 13 12 12 12 12 12 10 10 10 8 8 7 8 9 8 7 8 9 8 7 7 8 8 8 8 8 8 7 6 7 7 7 5
20 17 9 4 2 1 1 3 3 6 11 13 14 14 16 16 16 16 16 16 16 18 18 16 15 15 14 14 14 14 13 13 12 13 13 13 12 12 11 9 8 6 7 8 6 8 8 8 8 7 7 8 8 7 7 7 7 7 7 8 8 8 7
18 18 19 18 15 12 11 8 1 2 4 7 10 12 13 15 15 15 16 15 16 16 17 16 15 15 15 14 15 14 14 14 14 14 14 15 13 15 13 11 10 7 8 7 7 7 7 7 7 7 7 8 9 8 8 8 8 8 8 8 7 8 8
18 17 17 18 17 18 15 11 11 10 6 1 5 8 9 11 12 14 14 15 15 15 15 15 14 14 15 14 15 15 16 15 15 16 16 16 14 15 15 13 12 10 9 9 9 8 8 8 8 8 9 9 9 9 9 8 8 9 9 9 8 7 7
15 14 15 16 15 14 16 17 15 14 13 11 6 4 8 8 10 11 12 13 13 13 14 14 14 14 14 15 15 14 15 16 16 15 15 15 14 13 13 13 13 13 12 10 10 10 10 9 9 8 9 9 9 9 9 9 8 9 9 9 8 8 8
17 17 17 16 18 19 17 15 16 16 15 15 13 11 6 2 9 10 10 12 12 12 12 11 12 13 14 14 14 14 16 15 14 14 14 13 13 13 13 13 13 13 13 11 12 12 11 11 10 9 8 9 9 10 9 8 8 8 9 9 9 8 8
17 16 17 18 17 16 16 16 15 15 16 14 14 15 11 9 8 3 7 10 10 10 12 11 11 11 12 13 13 14 13 12 12 12 12 12 12 13 13 13 12 12 11 11 12 11 11 11 10 10 10 9 9 9 8 8 9 8 9 9 9 8 9
15 16 16 16 15 14 14 15 14 14 15 15 15 14 13 12 8 6 6 1 4 8 5 6 6 8 11 12 13 12 12 13 12 12 13 12 13 13 13 13 12 12 12 12 11 11 11 11 11 11 11 11 10 9 8 9 8 10 15 14 10 9 9
14 14 14 14 14 14 13 14 15 16 16 16 15 14 12 11 9 8 4 5 3 1 6 11 8 4 5 10 13 13 12 11 10 10 11 12 12 11 12 13 12 12 12 12 11 11 11 11 11 12 11 12 11 11 10 9 9 14 15 16 17 12 9
13 14 13 13 13 15 15 15 16 15 15 15 14 14 13 12 12 8 5 4 2 7 6 2 9 12 12 8 1 6 7 9 10 11 11 11 11 11 11 11 11 12 12 12 12 11 10 11 12 12 11 10 11 11 11 10 12 15 15 16 17 15 11
13 12 12 12 14 14 15 13 12 14 14 13 13 13 14 12 11 10 9 1 2 4 8 3 5 5 8 10 14 15 12 11 11 12 12 13 13 13 12 12 12 13 12 13 12 10 11 12 12 12 11 11 11 12 12 11 14 15 16 17 18 18 15
10 10 10 11 11 12 12 13 11 11 12 12 13 12 10 10 10 10 9 4 2 6 10 11 11 9 10 10 13 14 14 13 12 12 13 13 13 13 13 13 14 14 13 12 10 11 12 12 13 12 12 12 12 11 11 11 13 16 17 17 18 18 16
9 11 13 12 12 11 11 12 13 12 12 11 12 12 10 10 11 11 9 8 3 3 3 2 8 11 11 11 11 11 11 14 16 17 17 15 13 12 13 15 15 14 13 12 13 13 13 12 12 12 12 12 12 11 11 11 16 16 18 18 18 19 16
10 10 11 11 11 11 9 10 11 13 12 11 11 11 11 10 11 11 11 9 7 5 4 6 8 9 8 7 6 9 11 12 15 17 15 14 12 12 13 13 14 14 13 12 12 12 11 11 11 12 13 12 12 12 13 12 16 17 17 19 18 18 11
5 7 8 9 10 10 9 8 8 9 10 10 11 11 11 12 11 11 12 10 7 6 6 3 7 8 8 8 8 10 10 9 11 12 12 12 12 14 14 13 13 12 11 12 12 12 13 13 13 12 12 13 12 13 13 13 14 17 18 18 19 13 9
6 5 7 9 9 10 9 9 9 9 9 11 11 10 11 11 11 10 10 9 8 8 6 7 5 7 8 9 10 10 10 11 12 12 11 10 13 15 14 13 12 12 11 12 13 13 13 12 11 12 12 13 14 14 14 14 14 17 18 19 19 16 12
8 7 7 8 8 9 11 10 11 11 9 8 11 11 10 10 11 11 11 11 10 8 6 6 7 5 5 8 10 11 12 12 13 13 12 12 14 13 14 14 13 12 11 12 12 13 11 10 11 11 11 13 14 16 16 14 13 17 18 19 19 17 11
10 10 9 9 8 7 8 10 11 12 11 12 11 11 11 9 9 10 9 10 9 9 8 7 8 8 8 8 7 8 11 11 12 12 12 14 14 13 14 12 11 12 13 13 12 11 11 11 11 12 12 11 12 12 14 14 13 13 20 20 20 22 14
8 8 10 11 11 10 6 7 9 9 11 10 10 10 9 9 9 9 10 9 9 9 9 9 9 9 9 8 9 9 8 9 11 13 13 13 13 13 13 12 12 13 13 13 12 11 11 13 12 12 12 11 12 12 13 13 14 13 19 20 21 22 19
9 10 9 10 12 11 10 5 6 10 11 10 10 9 9 9 10 9 10 9 9 10 10 10 10 9 9 10 10 10 10 9 10 12 12 12 12 12 12 12 13 12 13 12 11 13 13 12 11 11 11 11 11 12 13 13 18 13 17 21 21 21 24
9 9 12 12 13 12 12 11 7 9 11 11 10 9 9 10 11 11 10 10 10 10 10 10 10 9 9 9 11 10 11 8 9 10 9 10 12 13 13 11 12 13 12 12 12 13 13 13 11 11 11 10 10 10 11 12 12 19 15 19 21 22 22
9 9 10 10 11 13 12 12 12 8 9 12 10 9 8 9 10 12 12 13 11 10 10 10 10 9 8 8 9 10 10 9 8 11 11 11 11 11 12 12 12 12 11 12 12 11 12 11 10 11 11 11 11 10 11 11 12 14 20 16 21 21 24
10 11 10 10 11 12 11 11 14 15 10 10 12 10 9 8 10 13 14 12 12 12 12 12 11 9 7 7 8 10 10 8 8 7 9 10 11 11 11 12 12 11 11 11 11 11 12 11 11 11 12 11 11 11 10 10 11 11 14 20 19 22 23
11 9 10 10 9 10 10 11 11 12 14 12 11 11 9 9 8 12 12 12 11 12 12 12 11 10 8 8 8 9 10 9 8 7 8 9 9 12 12 12 12 12 11 11 12 12 12 12 11 11 11 11 11 11 11 10 10 12 11 12 16 17 22
11 11 10 11 11 10 10 9 11 12 13 15 12 9 11 10 9 9 10 11 12 12 12 12 12 10 9 9 9 8 6 7 8 9 8 8 8 10 11 12 12 12 11 11 12 12 12 12 11 11 11 12 12 11 10 11 11 11 11 9 10 10 12
11 14 13 10 11 11 10 10 10 12 11 12 14 10 9 11 10 10 10 10 11 12 12 12 11 10 9 10 9 8 7 8 10 11 9 8 8 9 10 11 12 12 12 13 13 12 12 11 11 12 13 12 11 11 10 11 11 12 12 11 9 10 10
11 12 14 13 11 10 11 10 10 11 10 12 13 12 11 11 11 10 11 10 10 10 12 11 12 11 11 9 8 9 8 8 8 9 9 9 8 8 10 11 12 13 13 15 13 14 14 13 14 15 14 13 12 12 12 12 14 14 13 12 15 15 13
10 12 14 13 11 11 12 12 12 10 10 11 11 11 12 11 11 10 10 10 9 10 11 12 11 11 10 8 8 8 8 7 9 10 10 10 9 8 7 7 9 14 14 13 17 21 21 18 15 15 13 13 14 14 15 15 16 19 20 19 21 22 21
11 11 12 13 14 14 12 12 11 10 10 10 8 10 11 12 11 10 10 10 10 11 11 11 10 10 9 8 8 8 7 8 9 9 10 10 10 7 7 9 8 6 9 14 16 20 21 22 23 20 18 16 13 14 20 20 17 15 16 18 18 20 20
11 11 12 12 12 13 13 13 11 10 11 9 8 10 11 12 11 9 9 10 11 11 10 10 9 9 9 8 8 8 7 7 8 9 9 10 9 8 8 8 7 8 3 4 7 10 17 20 21 20 18 19 17 13 10 15 17 16 17 19 18 19 20
Wind_Direction
198 194 194 194 197 199 197 193 188 185 186 187 188 187 186 185 185 185 187 187 190 189 188 186 189 189 191 192 190 189 192 192 191 189 187 193 194 189 190 194 195 200 197 199 205 205 209 194 195 199 197 201 203 206 210 207 205 212 206 204 207 210 213
195 199 197 196 199 201 199 193 189 187 186 187 188 187 187 187 185 187 189 188 190 189 187 188 188 191 193 193 190 189 190 196 195 195 190 191 193 197 195 194 196 200 200 205 201 205 196 205 195 196 198 199 206 206 210 211 208 207 203 200 207 224 214
197 198 197 196 199 200 197 191 191 189 186 187 187 188 190 190 187 187 187 188 191 191 189 190 190 191 192 191 189 192 193 195 196 197 196 195 197 196 196 195 200 200 203 200 199 200 197 198 201 201 198 201 207 208 212 215 216 212 212 199 204 216 221
198 199 199 199 198 196 195 192 190 190 188 187 188 190 191 191 188 188 188 187 189 190 191 193 192 193 192 191 192 192 193 196 198 202 205 203 199 195 187 198 203 206 193 203 204 196 197 193 196 201 202 201 209 211 212 218 217 211 215 206 212 216 219
203 202 200 199 197 194 194 192 191 191 190 189 190 190 191 190 186 187 191 191 190 191 192 189 191 193 194 194 195 195 194 194 198 203 208 211 205 192 192 195 197 199 207 205 197 195 192 189 195 194 199 196 204 208 216 219 219 206 203 200 215 217 220
199 196 200 200 197 196 196 194 191 191 190 188 188 188 189 188 187 190 191 190 194 196 191 189 191 191 194 194 195 197 197 198 197 199 205 208 203 201 201 199 194 200 199 203 194 199 195 193 194 193 194 195 196 203 213 219 222 212 203 193 210 210 213
194 197 197 196 197 197 196 195 192 191 191 190 187 186 186 188 191 191 189 192 193 191 192 193 194 193 196 191 196 194 196 198 195 197 199 204 208 212 213 206 199 199 203 187 198 193 195 201 200 195 195 194 195 199 204 212 220 215 206 201 208 211 210
220 210 201 197 197 196 195 194 193 190 188 187 185 185 187 190 191 191 191 195 192 193 194 193 194 196 194 194 195 196 197 198 198 198 195 200 207 214 217 212 205 199 183 191 202 190 200 203 203 197 195 197 200 200 202 209 213 211 202 208 210 211 200
349 193 170 271 238 213 203 198 194 190 185 185 187 187 186 188 192 192 194 193 193 193 196 195 195 194 192 193 195 199 198 196 197 196 197 200 204 214 220 221 217 197 193 200 198 195 200 203 203 199 194 202 203 200 203 206 212 210 206 213 212 211 208
20 17 23 47 67 41 291 254 229 200 192 190 189 188 188 191 193 194 194 193 193 196 195 194 194 194 194 195 198 196 194 197 199 197 199 202 204 209 213 217 221 210 210 209 199 196 202 200 201 196 195 203 206 203 204 205 212 212 212 217 215 217 216
19 23 30 25 23 30 36 35 44 246 228 211 199 194 192 192 194 195 195 194 196 197 195 194 193 194 195 195 196 195 197 199 198 200 203 205 205 207 207 209 213 212 217 216 216 209 200 206 198 198 195 202 205 204 203 204 206 212 217 219 218 219 219
21 25 27 25 24 28 31 33 27 17 4 258 211 209 203 199 199 199 197 198 197 195 194 195 194 195 194 195 196 198 199 200 200 203 204 206 208 209 207 206 206 208 212 213 221 220 214 208 204 202 205 207 208 207 206 202 201 209 215 216 217 218 220
25 25 25 26 25 24 26 25 21 20 19 6 340 225 199 204 208 202 201 202 199 198 196 194 194 194 195 196 198 200 202 201 203 204 204 206 208 210 211 210 208 206 210 207 213 218 219 217 212 212 209 213 212 212 209 204 202 205 212 216 215 214 215
21 21 21 23 25 24 23 19 17 17 11 12 8 4 0 253 207 202 201 201 199 196 194 196 197 197 198 197 200 204 204 205 205 205 206 206 206 209 212 214 213 210 209 204 208 213 216 217 216 217 213 217 216 217 212 207 204 204 208 213 212 211 217
23 16 15 20 21 20 18 18 15 12 11 8 8 7 2 9 358 302 207 197 195 189 193 191 193 200 202 201 206 207 206 207 207 208 207 207 207 209 212 214 215 216 214 210 210 212 214 216 217 217 218 220 218 219 215 213 211 204 202 205 209 209 214
29 18 14 14 15 16 16 14 14 12 9 9 6 2 360 358 357 3 4 5 163 163 155 151 182 201 203 208 211 208 208 207 207 205 205 205 207 209 210 212 213 213 216 217 215 215 212 214 215 217 218 218 218 217 216 218 217 211 203 200 203 204 209
21 18 11 9 9 11 12 11 10 10 9 5 1 359 356 346 343 351 11 96 70 51 129 130 120 131 239 232 216 212 211 210 211 209 210 211 212 213 213 213 211 212 214 216 215 215 215 214 216 218 218 217 217 216 217 220 219 211 202 203 203 201 204
13 11 7 7 6 6 8 9 7 5 2 356 356 357 353 350 344 347 7 355 79 103 36 346 169 177 187 195 307 284 231 213 207 208 210 208 213 215 217 218 217 217 216 215 215 214 214 217 219 218 218 218 218 218 219 221 220 208 203 203 204 203 204
11 8 2 1 7 7 2 3 3 360 354 351 353 351 345 343 343 344 340 11 20 68 101 114 326 283 203 186 184 202 203 204 206 210 210 211 210 209 209 211 215 218 218 218 215 212 213 218 217 220 219 218 219 220 219 223 217 207 203 203 204 205 206
7 358 359 0 8 8 359 349 356 358 349 344 340 338 333 335 337 326 328 332 142 168 194 177 178 206 226 211 202 202 193 187 189 201 219 215 212 209 208 210 214 215 214 215 213 213 217 216 217 219 218 219 220 222 223 222 219 205 203 203 203 204 202
8 357 349 354 356 2 1 352 340 347 348 347 337 323 329 343 339 330 331 336 315 210 280 253 211 214 212 216 215 200 191 192 192 199 209 210 212 211 212 210 212 213 213 211 210 210 213 214 216 218 219 220 219 223 225 226 216 205 202 203 203 204 199
352 353 349 342 341 343 353 353 345 335 335 336 331 328 338 341 332 332 328 326 334 328 213 207 215 233 225 226 239 233 220 207 203 204 205 205 209 215 218 217 214 212 210 212 215 213 210 213 214 216 217 218 218 221 228 228 212 204 203 202 204 198 197
338 334 332 328 327 335 341 339 331 326 325 330 328 331 339 335 329 329 325 318 329 331 327 234 222 231 233 236 223 225 235 239 232 224 211 203 206 215 219 219 218 219 212 212 215 215 212 210 210 213 214 215 216 219 225 228 214 203 203 202 200 185 200
317 312 314 318 324 324 341 336 327 326 331 324 324 329 333 332 326 320 302 307 325 335 324 319 275 234 230 231 229 229 228 226 230 232 221 210 211 214 217 217 216 216 208 213 213 216 217 214 213 211 212 213 216 216 221 227 215 200 203 202 193 186 196
314 311 310 305 308 321 330 333 328 326 325 320 322 328 329 327 325 321 320 325 328 318 315 310 312 311 261 235 228 224 223 224 223 224 220 216 218 218 217 213 213 211 207 213 214 217 215 214 218 217 215 215 217 215 217 226 219 200 202 201 193 191 202
318 315 308 309 312 313 313 322 329 329 332 332 326 322 324 326 325 321 317 311 310 310 309 311 313 308 304 303 282 243 228 227 226 224 219 218 219 219 218 215 213 209 209 211 212 214 212 213 214 217 218 216 215 217 216 221 223 203 201 199 196 192 197
305 300 301 306 308 311 303 318 324 320 318 317 316 319 323 327 325 324 319 317 314 314 311 312 307 302 302 292 288 286 263 235 227 225 222 219 219 219 219 213 212 210 210 210 209 211 212 213 212 215 219 216 215 218 216 218 220 211 196 200 195 196 194
310 312 300 296 300 307 312 311 307 319 318 318 319 322 326 328 326 318 318 316 312 311 309 304 302 303 302 298 293 288 279 264 239 227 224 221 217 217 219 216 212 210 210 209 207 210 213 212 211 214 217 217 216 218 219 216 213 216 201 199 197 195 195
309 307 311 311 309 311 315 317 320 318 313 311 316 324 327 329 323 325 321 312 312 310 303 299 295 295 293 294 294 290 285 271 264 251 226 223 217 216 218 213 211 211 208 206 207 210 213 212 211 212 216 218 219 219 218 217 215 213 209 200 197 195 197
304 305 304 298 294 299 305 307 309 309 309 310 314 321 327 331 322 326 324 317 316 306 297 293 292 287 284 287 287 286 280 274 217 232 246 231 223 220 217 213 210 209 205 204 205 208 211 213 210 211 214 217 219 218 218 216 218 212 211 201 197 197 198
300 302 299 295 295 296 297 300 305 308 306 306 312 318 324 326 317 321 322 321 316 314 311 304 296 290 279 276 280 282 280 272 272 246 231 237 227 226 221 216 209 208 206 202 206 207 210 213 208 210 214 216 218 219 217 215 216 218 210 205 195 198 200
300 299 300 301 297 294 293 297 297 299 303 307 311 316 321 318 314 314 314 314 313 309 306 301 298 299 299 291 279 271 271 287 290 272 257 245 227 220 217 214 207 207 203 202 205 206 210 210 208 213 213 216 218 219 217 213 214 220 211 202 200 200 203
296 297 298 300 297 299 297 294 296 299 304 304 308 313 312 312 309 304 309 311 311 311 310 308 304 302 305 308 308 298 290 294 286 287 277 258 242 223 214 208 205 205 204 201 203 207 210 209 208 213 213 217 219 217 216 213 216 218 215 193 195 199 204
293 297 296 291 293 293 289 283 281 289 296 296 302 307 306 307 309 309 309 307 308 310 311 308 305 301 300 301 302 296 293 289 283 280 275 264 245 231 217 206 202 203 203 200 202 204 209 207 209 212 212 217 214 214 214 217 219 218 214 201 188 196 195
283 285 290 294 291 289 287 283 278 277 282 287 294 302 306 305 305 308 308 307 305 303 307 308 305 300 295 291 291 291 291 290 295 294 287 277 256 234 219 206 202 207 206 205 203 202 202 206 211 211 213 211 209 208 215 217 220 222 209 197 187 190 194
274 278 281 284 287 282 281 277 271 266 268 278 287 294 298 299 300 301 302 303 302 301 305 309 306 298 292 291 289 293 290 296 298 293 289 282 275 254 240 266 242 210 202 208 207 206 206 202 208 209 206 210 213 207 209 214 217 214 196 192 189 194 192
271 271 273 281 285 284 277 272 267 265 264 266 276 286 290 293 294 298 302 305 297 300 303 304 303 294 289 288 286 286 289 290 285 286 290 286 278 252 222 217 241 304 268 237 211 205 210 209 216 214 206 205 216 215 219 224 225 211 193 195 191 191 194
259 259 264 267 268 273 276 274 267 263 264 268 273 277 280 284 290 293 299 301 298 298 298 298 296 291 287 283 279 277 270 270 275 282 283 282 267 234 211 212 213 234 263 0 311 260 219 214 217 217 215 214 215 212 222 221 218 204 190 193 188 188 194